Home   Weather   Sarpsborg   Past weeks

Flag for Norway Past Weather in Sarpsborg, Norway — Yesterday and Last 2 Weeks

41 °F

Passing clouds.

Feels Like: 35 °F
Forecast: 35 / 45 °F
Wind: 10 mph from Northeast

Location: Rygge

Current Time: Oct 24, 2016 at 11:57:52 PM

Latest Report: Oct 24, 2016 at 11:20 PM

Visibility: N/A

Pressure: 30.27 "Hg

Humidity: 93%

Dew Point: 39 °F

Location of SarpsborgLocation

Past Weather in Sarpsborg — Graph


Sarpsborg Temperature Yesterday

Maximum temperature yesterday: 43 °F (at 9:20 PM)
Minimum temperature yesterday: 36 °F (at 2:20 AM)
Average temperature yesterday: 39 °F

High & Low Weather Summary for the Past Weeks

High48 °F (Oct 10, 4:20 PM)100% (Oct 16, 6:20 PM)30.60 "Hg (Oct 16, 6:20 PM)
Low34 °F (Oct 14, 6:50 AM)54% (Oct 10, 4:50 PM)30.09 "Hg (Oct 18, 5:20 PM)
Average42 °F84%30.37 "Hg
* Reported Oct 9 10:20 PM — Oct 24 10:50 PM, Sarpsborg, Weather by CustomWeather, © 2016

Note: Actual official high and low records may vary slightly from our data, if they occured in-between our weather recording intervals... More about our weather records


Sarpsborg Weather History for the Previous 24 Hours

Scroll right to see more
Time TempWeatherWind HumidityBarometerVisibility
10:50 PM
Mon, Oct 24
41 °FPartly cloudy.10 mph93%30.27 "HgN/A
10:20 PM41 °FPassing clouds.10 mph93%30.27 "HgN/A
9:50 PM41 °FLight rain. Passing clouds.10 mph93%30.27 "HgN/A
9:20 PM41 °FLight rain. Partly cloudy.9 mph93%30.27 "HgN/A
8:50 PM41 °FLight rain. Passing clouds.9 mph93%30.27 "HgN/A
8:20 PM41 °FLight rain. Passing clouds.10 mph93%30.27 "HgN/A
7:50 PM41 °FLight rain. Passing clouds.10 mph93%30.27 "HgN/A
7:20 PM43 °FPartly cloudy.12 mph87%30.27 "HgN/A
6:50 PM43 °FPassing clouds.12 mph93%30.27 "HgN/A
6:20 PM43 °FPassing clouds.10 mph93%30.27 "HgN/A
5:50 PM43 °FOvercast.9 mph93%30.27 "HgN/A
5:20 PM43 °FMostly cloudy.9 mph93%30.27 "HgN/A
4:50 PM43 °FDrizzle. Mostly cloudy.9 mph93%30.27 "HgN/A
4:20 PM43 °FOvercast.8 mph93%30.27 "HgN/A
3:50 PM43 °FPartly sunny.9 mph93%30.27 "HgN/A
3:20 PM43 °FLight rain. Mostly cloudy.10 mph93%30.27 "HgN/A
2:50 PM43 °FLight rain. More clouds than sun.10 mph93%30.27 "HgN/A
2:20 PM43 °FLight rain. More clouds than sun.10 mph93%30.30 "HgN/A
1:50 PM43 °FDrizzle. Broken clouds.12 mph93%30.30 "HgN/A
1:20 PM43 °FLight rain. Partly sunny.9 mph93%30.30 "HgN/A
12:50 PM43 °FRain. Partly sunny.8 mph93%30.30 "Hg5 mi
12:20 PM43 °FLight rain. Partly sunny.9 mph87%30.30 "HgN/A
11:50 AM43 °FLight rain. Partly sunny.8 mph87%30.30 "HgN/A
11:20 AM43 °FOvercast.10 mph87%30.30 "HgN/A
10:50 AM43 °FMostly cloudy.8 mph87%30.30 "HgN/A
10:20 AM43 °FMostly cloudy.9 mph87%30.30 "HgN/A
9:50 AM43 °FBroken clouds.9 mph87%30.30 "HgN/A
9:20 AM43 °FPartly sunny.8 mph87%30.30 "HgN/A
8:50 AM41 °FOvercast.9 mph93%30.30 "HgN/A
8:20 AM43 °FLow clouds.9 mph87%30.30 "HgN/A
7:50 AM43 °FOvercast.8 mph87%30.30 "HgN/A
7:20 AM41 °FOvercast.7 mph87%30.30 "HgN/A
6:50 AM43 °FOvercast.8 mph87%30.30 "HgN/A
6:20 AM43 °FOvercast.6 mph81%30.30 "HgN/A
5:50 AM43 °FOvercast.8 mph87%30.30 "HgN/A
5:20 AM43 °FOvercast.12 mph87%30.27 "HgN/A
4:50 AM43 °FMostly cloudy.9 mph81%30.27 "HgN/A
4:20 AM43 °FPassing clouds.10 mph87%30.27 "HgN/A
3:50 AM43 °FMostly cloudy.10 mph87%30.27 "HgN/A
3:20 AM43 °FOvercast.10 mph87%30.27 "HgN/A
2:50 AM43 °FOvercast.9 mph87%30.27 "HgN/A
2:20 AM43 °FOvercast.10 mph87%30.27 "HgN/A
1:50 AM43 °FMostly cloudy.10 mph87%30.27 "HgN/A
1:20 AM43 °FMostly cloudy.13 mph87%30.27 "HgN/A
12:50 AM43 °FOvercast.12 mph87%30.27 "HgN/A
12:20 AM43 °FOvercast.12 mph87%30.27 "HgN/A
11:50 PM
Sun, Oct 23
43 °FOvercast.14 mph87%30.24 "HgN/A
11:20 PM43 °FOvercast.13 mph87%30.24 "HgN/A
Weather by CustomWeather, © 2016

See weather overviewHow to use our weather pages